Stanley, ND

7:21 PM CDT on April 27, 2017 (GMT -0500)
Stanley

Weather History for K08D - July, 2012

Change the Weather History Date:

Wednesday, July 25, 2012

  Actual Average (KMIB) Record (KMIB)
Temperature  
Mean Temperature 67 °F -  
Max Temperature 77 °F 78 °F 91 °F (2015)
Min Temperature 57 °F 55 °F 50 °F (1996)
Cooling Degree Days 2    
Growing Degree Days 17 (Base 50)    
Moisture  
Dew Point 55 °F    
Average Humidity 72    
Maximum Humidity 100    
Minimum Humidity 32    
Precipitation  
Precipitation 0.00 in - - ()
Sea Level Pressure  
Sea Level Pressure 29.81 in    
Wind  
Wind Speed 8 mph (WNW)    
Max Wind Speed 18 mph    
Max Gust Speed 30 mph    
Visibility 8 miles    
Events Fog    
Averages and records for this station are not official NWS values.
T = Trace of Precipitation, MM = Missing Value Source: NWS Daily Summary

Daily Weather History Graph

Daily Weather History Graph

Search for Another Location

Airport or City:

Trip Planner

Search our weather history database for the weather conditions in past years. The results will help you decide how hot, cold, wet, or windy it might be!

Date:

Astronomy

Jul. 25, 2012 Rise Set
Actual Time 6:16 AM CDT 9:34 PM CDT
Civil Twilight 5:38 AM CDT 10:12 PM CDT
Nautical Twilight 4:48 AM CDT 11:02 PM CDT
Astronomical Twilight 3:44 AM CDT 12:05 AM CDT
Moon 2:05 PM CDT (7/25) No Moon Set
Length of Visible Light 16h 33m
Length of Day
15h 18m
Waxing Crescent, 42% of the Moon is Illuminated
Jul 25
Waxing Crescent
Jul 26
First Quarter
Aug 1
Full
Aug 9
Last Quarter
Aug 17
New

Hourly Weather History & Observations

Time (CDT) Temp. Dew Point Humidity Pressure Visibility Wind Dir Wind Speed Gust Speed Precip Events Conditions
12:15 AM 64.4 °F 64.4 °F 100% 29.78 in 10.0 mi Calm Calm - N/A   Clear
12:35 AM 62.6 °F 62.6 °F 100% 29.78 in 3.0 mi SSW 4.6 mph - N/A   Mostly Cloudy
12:55 AM 64.4 °F 64.4 °F 100% 29.77 in 10.0 mi SSW 4.6 mph - N/A   Scattered Clouds
1:15 AM 62.6 °F 62.6 °F 100% 29.77 in 0.2 mi Calm Calm - N/A Fog Fog
1:35 AM 62.6 °F 62.6 °F 100% 29.76 in 0.8 mi Calm Calm - N/A   Mist
1:55 AM 62.6 °F 62.6 °F 100% 29.76 in 0.5 mi SSW 4.6 mph - N/A Fog Fog
2:15 AM 60.8 °F 60.8 °F 100% 29.76 in 0.2 mi Calm Calm - N/A Fog Fog
2:35 AM 57.2 °F 57.2 °F 100% 29.76 in 0.2 mi Calm Calm - N/A Fog Fog
2:55 AM 59.0 °F 59.0 °F 100% 29.76 in 0.2 mi SW 3.5 mph - N/A Fog Fog
3:15 AM 59.0 °F 59.0 °F 100% 29.76 in 0.2 mi SSW 5.8 mph - N/A Fog Fog
3:35 AM 59.0 °F 59.0 °F 100% 29.76 in 0.2 mi WSW 4.6 mph - N/A Fog Fog
3:55 AM 60.8 °F 60.8 °F 100% 29.76 in 0.2 mi West 5.8 mph - N/A Fog Fog
4:15 AM 60.8 °F 60.8 °F 100% 29.76 in 1.8 mi WSW 4.6 mph - N/A   Clear
4:55 AM 60.8 °F 60.8 °F 100% 29.77 in 4.0 mi West 5.8 mph - N/A   Clear
5:15 AM 60.8 °F 60.8 °F 100% 29.77 in 2.0 mi SSW 6.9 mph - N/A   Scattered Clouds
5:35 AM 62.6 °F 62.6 °F 100% 29.77 in 1.0 mi West 10.4 mph - N/A   Mostly Cloudy
5:55 AM 62.6 °F 62.6 °F 100% 29.76 in 10.0 mi WNW 6.9 mph - N/A   Clear
6:15 AM 62.6 °F 62.6 °F 100% 29.75 in 10.0 mi WNW 8.1 mph - N/A   Clear
6:35 AM 62.6 °F 62.6 °F 100% 29.76 in 10.0 mi West 8.1 mph - N/A   Clear
6:55 AM 60.8 °F 60.8 °F 100% 29.77 in 10.0 mi WNW 11.5 mph 17.3 mph N/A   Clear
7:15 AM 60.8 °F 60.8 °F 100% 29.79 in 10.0 mi NW 10.4 mph 18.4 mph N/A   Clear
7:55 AM 60.8 °F 60.8 °F 100% 29.81 in 10.0 mi NW 11.5 mph 18.4 mph N/A   Clear
8:15 AM 60.8 °F 59.0 °F 94% 29.81 in 10.0 mi NNW 13.8 mph 20.7 mph N/A   Clear
8:35 AM 62.6 °F 59.0 °F 88% 29.82 in 10.0 mi NW 10.4 mph 16.1 mph N/A   Clear
8:55 AM 62.6 °F 57.2 °F 82% 29.82 in 10.0 mi NNW 13.8 mph 18.4 mph N/A   Clear
9:15 AM 62.6 °F 57.2 °F 82% 29.82 in 10.0 mi NW 11.5 mph 20.7 mph N/A   Clear
9:35 AM 64.4 °F 55.4 °F 73% 29.83 in 10.0 mi NNW 15.0 mph 24.2 mph N/A   Clear
9:55 AM 64.4 °F 53.6 °F 68% 29.83 in 10.0 mi NNW 12.7 mph 23.0 mph N/A   Clear
10:15 AM 66.2 °F 55.4 °F 68% 29.83 in 10.0 mi NW 13.8 mph 19.6 mph N/A   Clear
10:35 AM 66.2 °F 53.6 °F 64% 29.83 in 10.0 mi NW 16.1 mph 23.0 mph N/A   Clear
10:55 AM 66.2 °F 51.8 °F 60% 29.83 in 10.0 mi NW 17.3 mph 26.5 mph N/A   Clear
11:15 AM 68.0 °F 51.8 °F 56% 29.83 in 10.0 mi NW 17.3 mph 24.2 mph N/A   Clear
11:35 AM 68.0 °F 53.6 °F 60% 29.83 in 10.0 mi NW 15.0 mph 24.2 mph N/A   Clear
12:15 PM 69.8 °F 50.0 °F 49% 29.83 in 10.0 mi WNW 17.3 mph 23.0 mph N/A   Clear
12:35 PM 69.8 °F 50.0 °F 49% 29.83 in 10.0 mi WNW 15.0 mph 27.6 mph N/A   Clear
12:55 PM 71.6 °F 51.8 °F 50% 29.83 in 10.0 mi NW 13.8 mph 21.9 mph N/A   Clear
1:15 PM 71.6 °F 51.8 °F 50% 29.83 in 10.0 mi NW 12.7 mph 24.2 mph N/A   Clear
1:35 PM 73.4 °F 50.0 °F 44% 29.83 in 10.0 mi NW 16.1 mph 24.2 mph N/A   Clear
1:55 PM 73.4 °F 50.0 °F 44% 29.83 in 10.0 mi NW 17.3 mph 25.3 mph N/A   Clear
2:35 PM 75.2 °F 50.0 °F 41% 29.83 in 10.0 mi WNW 13.8 mph 21.9 mph N/A   Partly Cloudy
2:55 PM 75.2 °F 48.2 °F 38% 29.83 in 10.0 mi WNW 13.8 mph 26.5 mph N/A   Clear
3:15 PM 75.2 °F 48.2 °F 38% 29.83 in 10.0 mi West 13.8 mph 26.5 mph N/A   Clear
3:35 PM 75.2 °F 46.4 °F 36% 29.83 in 10.0 mi WNW 15.0 mph 29.9 mph N/A   Clear
3:55 PM 77.0 °F 46.4 °F 34% 29.82 in 10.0 mi WNW 17.3 mph 25.3 mph N/A   Clear
4:15 PM 77.0 °F 44.6 °F 32% 29.82 in 10.0 mi WNW 18.4 mph 26.5 mph N/A   Clear
4:35 PM 77.0 °F 46.4 °F 34% 29.82 in 10.0 mi WNW 18.4 mph 26.5 mph N/A   Clear
4:55 PM 77.0 °F 48.2 °F 36% 29.81 in 10.0 mi West 16.1 mph 26.5 mph N/A   Partly Cloudy
5:15 PM 75.2 °F 50.0 °F 41% 29.81 in 10.0 mi WNW 12.7 mph 21.9 mph N/A   Scattered Clouds
5:35 PM 75.2 °F 51.8 °F 44% 29.81 in 10.0 mi WNW 13.8 mph 24.2 mph N/A   Scattered Clouds
5:55 PM 73.4 °F 53.6 °F 50% 29.81 in 10.0 mi WNW 11.5 mph 23.0 mph N/A   Mostly Cloudy
6:15 PM 73.4 °F 55.4 °F 53% 29.81 in 10.0 mi NW 11.5 mph 21.9 mph N/A   Mostly Cloudy
6:35 PM 73.4 °F 53.6 °F 50% 29.81 in 10.0 mi NW 15.0 mph 26.5 mph N/A   Scattered Clouds
6:55 PM 73.4 °F 50.0 °F 44% 29.82 in 10.0 mi NW 15.0 mph 27.6 mph N/A   Clear
7:15 PM 73.4 °F 48.2 °F 41% 29.82 in 10.0 mi NW 18.4 mph 27.6 mph N/A   Clear
7:35 PM 71.6 °F 50.0 °F 46% 29.82 in 10.0 mi NNW 16.1 mph 23.0 mph N/A   Clear
7:55 PM 71.6 °F 50.0 °F 46% 29.83 in 10.0 mi NW 15.0 mph 21.9 mph N/A   Clear
8:15 PM 69.8 °F 50.0 °F 49% 29.84 in 10.0 mi NW 12.7 mph 19.6 mph N/A   Clear
8:35 PM 68.0 °F 51.8 °F 56% 29.84 in 10.0 mi NW 10.4 mph 16.1 mph N/A   Clear
8:55 PM 68.0 °F 53.6 °F 60% 29.84 in 10.0 mi NW 6.9 mph - N/A   Clear
9:15 PM 64.4 °F 53.6 °F 68% 29.83 in 10.0 mi NNW 8.1 mph - N/A   Clear
9:35 PM 62.6 °F 55.4 °F 77% 29.84 in 10.0 mi NW 5.8 mph - N/A   Clear
9:55 PM 62.6 °F 55.4 °F 77% 29.84 in 10.0 mi NW 5.8 mph - N/A   Mostly Cloudy
10:15 PM 64.4 °F 55.4 °F 73% 29.85 in 10.0 mi NW 6.9 mph - N/A   Overcast
10:35 PM 64.4 °F 55.4 °F 73% 29.85 in 10.0 mi WNW 5.8 mph - N/A   Overcast
10:55 PM 62.6 °F 55.4 °F 77% 29.85 in 10.0 mi West 4.6 mph - N/A   Overcast
11:15 PM 60.8 °F 57.2 °F 88% 29.85 in 10.0 mi West 4.6 mph - N/A   Mostly Cloudy
11:35 PM 59.0 °F 57.2 °F 94% 29.85 in 10.0 mi WNW 5.8 mph - N/A   Mostly Cloudy
11:55 PM 59.0 °F 57.2 °F 94% 29.85 in 10.0 mi WNW 5.8 mph - N/A   Mostly Cloudy